Regional Weather Roundup
Issued by NWS Lake Charles, LA

Home | Current Version | Previous Version | Text Only | Print | Product List | Glossary On
Versions: 1 2 3 4 5 6 7 8 9 10 11 12 13 14 15 16 17 18 19 20 21 22 23 24 25 26 27 28 29 30 31 32 33 34 35 36 37 38 39 40 41 42 43 44 45 46 47 48 49 50
000
ASUS44 KLCH 282010
RWRLCH
RWRLCH
REGIONAL WEATHER ROUNDUP
NATIONAL WEATHER SERVICE LAKE CHARLES LA
300 PM CDT MON JUL 28 2014

Note: "fair" indicates few or no clouds below 12,000 feet with no
significant weather and/or obstructions to visibility.


ACROSS SOUTHEAST TEXAS

CITY           SKY/WX    TMP DP  RH WIND       PRES   REMARKS
BEAUMONT       MOSUNNY   93  74  53 VRB7      30.06F HX 103
BEAUMONT CITY    N/A     93  74  54 W7        30.07F HX 103
ORANGE         PTCLDY    92  68  44 W5        30.08F
JASPER         MOSUNNY   93  69  45 NW7       30.10S
$$

ACROSS CENTRAL LOUISIANA

CITY           SKY/WX    TMP DP  RH WIND       PRES   REMARKS
LEESVILLE      MOSUNNY   92  72  51 NW9       30.06F
FULLERTON        N/A     94  73  50 VRB5      30.03F HX 103
ALEXANDRIA INT MOSUNNY   95  71  45 NW8       30.02F HX 102
ESLER FIELD    MOSUNNY   95  76  53 W9        30.03F HX 108
DERIDDER         N/A     93  72  50 CALM      30.08F HX 100
OAKDALE        MOCLDY    91  76  61 W3        30.05F HX 102
OPELOUSAS      MOCLDY    91  76  62 W8        30.04F HX 103
$$

ACROSS SOUTHWEST AND SOUTH CENTRAL LOUISIANA

CITY           SKY/WX    TMP DP  RH WIND       PRES   REMARKS
SULPHUR        PTCLDY    94  73  50 W6        30.07F HX 103
LAKE CHARLES   MOSUNNY   93  74  53 W8        30.06F HX 103
CHENNAULT INT  MOSUNNY   93  72  49 W6        30.07F HX 100
CAMERON PHI    CLEAR     88  79  74 SW12      30.07F HX 102
DEQUINCY         N/A     92  73  54 W8        30.06F HX 100
JENNINGS         N/A     91  75  60 NW8       30.06F HX 101
LAFAYETTE      NOT AVBL
NEW IBERIA     PTSUNNY   92  76  59 W8        30.06F HX 104
ABBEVILLE        N/A     91  76  62 W9        30.06F HX 102
PATTERSON      PTSUNNY   91  75  59 W10G16    30.09F HX 102
SALT POINT       N/A     93  76  57 VRB7      30.06F HX 105
$$

SELECTED SITES ACROSS THE REGION

CITY           SKY/WX    TMP DP  RH WIND       PRES   REMARKS
HOUSTON BUSH   MOSUNNY   94  69  44 N5        30.07F
HOUSTON HOBBY  MOSUNNY   95  71  45 S6        30.06F HX 102
GALVESTON      SUNNY     91  77  63 S15       30.09F HX 104
COLLEGE STAT   SUNNY     95  68  41 CALM      30.08F
CONROE         SUNNY     95  70  44 NW7       30.09F HX 101
HUNTSVILLE     MOSUNNY   93  71  48 N5        30.09F HX 100
LUFKIN         MOSUNNY   95  72  47 SW7       30.08F HX 103
SHREVEPORT     PTSUNNY   92  73  53 NW8       30.05F HX 100
MONROE         PTSUNNY   92  70  48 N7        30.05F
NATCHEZ MS     PTSUNNY   88  79  74 N7        30.04F HX 102
BATON ROUGE    PTSUNNY   92  77  61 W13       30.04F HX 105
N.O. INTL ARPT PTSUNNY   92  74  55 W14       30.02F HX 101
SLIDELL        TSTM      81  75  82 SW6       30.03R
$$

MARINE REPORTS

STATION/POSITION TIME  TEMP    WIND        PRES    VSBY  WAVE
                       AIR SEA DIR/SP/G                  HT/PER
                 (UTC) (F)     (DEG/KT/KT) (MB)    (MI)  (FT/S)
BUOY 30 S HIGH I NOT AVBL
SEA RIM ST PARK  2000   87     210/ 11/ 15 1018.7F
PORT ARTHUR      2000      87  280/  6/ 12 1018.3F
SABINE PASS N    2000   90 88  230/  8/ 16 1018.5S
TEXAS POINT      2000   86 87  220/ 13/ 15 1018.5F
CALCASIEU PASS   2000   86 89  250/ 11/ 13 1019.5F
LK CHARLES BEACH 2000   90 87              1018.6F
MARSH ISLAND     1900   85     280/ 14/ 16   N/A
FRESH WATER LOCK 2000   87 88  240/ 14/ 17 1018.2F
AMERADA PASS     2000   88 87  250/  5/ 11 1018.1F
$$



USA.gov is the U.S. government's official web portal to all federal, state and local government web resources and services.